Location: Seattle
(47.6064°N, 122.3308°W)
Time: 13:47:46
(UTC-08:00)

S-56A Canister/Altair - Pass Details

Date: 03 October 2022
Orbit: 638 x 2494 km, 38.9° (Epoch: 02 December)

Event Time Altitude Azimuth Distance (km) Brightness Sun altitude
Exits shadow 06:22:19 11° 262° (W) 3,380 10.1 -9.1°
Maximum altitude 06:29:07 32° 204° (SSW) 1,715 9.1 -7.9°
Drops below altitude 10° 06:34:10 10° 143° (SE) 2,450 10.6 -7.1°
Sets 06:36:32 0° 132° (SE) 3,221 11.5 -6.7°
